Location: Austin
(30.3000°N, 97.7500°W)
Time: 06:14:56
(UTC-06:00)

Cosmos 1110 Rocket - Pass Details

Date: 03 March 2026
Orbit: 749 x 776 km, 74.0° (Epoch: 6 March)

Event Time Altitude Azimuth Distance (km) Brightness Sun altitude
Rises 19:57:18 0° 341° (NNW) 3,234 7.5 -19.3°
Reaches altitude 10° 19:59:41 10° 339° (NNW) 2,308 6.8 -19.8°
Maximum altitude 20:04:54 73° 256° (WSW) 807 4.2 -21.0°
Drops below altitude 10° 20:10:08 10° 172° (S) 2,310 6.3 -22.1°
Enters shadow 20:12:28 - 170° (S) 3,219 7.1 -22.6°
